Meridian NAS, MS

3:36 PM CDT on May 25, 2017 (GMT -0500)
Meridian Naval Air Station

Weather History for KNMM - March, 2013

Change the Weather History Date:

Saturday, March 2, 2013

  Actual Average Record
Temperature  
Mean Temperature 34 °F -  
Max Temperature 39 °F 61 °F 82 °F (2012)
Min Temperature 30 °F 41 °F 27 °F (2005)
Degree Days  
Heating Degree Days 30    
Moisture  
Dew Point 24 °F    
Average Humidity 64    
Maximum Humidity 82    
Minimum Humidity 52    
Precipitation  
Precipitation 0.00 in - - ()
Sea Level Pressure  
Sea Level Pressure 30.21 in    
Wind  
Wind Speed 9 mph (NW)    
Max Wind Speed 17 mph    
Max Gust Speed 25 mph    
Visibility 10 miles    
Events      
Averages and records for this station are not official NWS values.
T = Trace of Precipitation, MM = Missing Value Source: NWS Daily Summary

Daily Weather History Graph

Daily Weather History Graph

Search for Another Location

Airport or City:

Trip Planner

Search our weather history database for the weather conditions in past years. The results will help you decide how hot, cold, wet, or windy it might be!

Date:

Astronomy

Mar. 02, 2013 Rise Set
Actual Time 6:20 AM CST 5:52 PM CST
Civil Twilight 5:55 AM CST 6:17 PM CST
Nautical Twilight 5:27 AM CST 6:45 PM CST
Astronomical Twilight 4:58 AM CST 7:14 PM CST
Moon 11:10 PM CST (3/2) 9:07 AM CST (3/2)
Length of Visible Light 12h 21m
Length of Day
11h 32m
Waning Gibbous, 74% of the Moon is Illuminated
Mar 2
Waning Gibbous
Mar 4
Last Quarter
Mar 11
New
Mar 19
First Quarter
Mar 27
Full

Hourly Weather History & Observations

Time (CST) Temp. Windchill Dew Point Humidity Pressure Visibility Wind Dir Wind Speed Gust Speed Precip Events Conditions
12:56 AM 36.0 °F 30.3 °F 24.1 °F 62% 30.19 in 10.0 mi WNW 6.9 mph - N/A   Mostly Cloudy
1:56 AM 34.0 °F 27.2 °F 24.1 °F 67% 30.18 in 10.0 mi NW 8.1 mph - N/A   Clear
2:56 AM 30.9 °F 27.5 °F 24.1 °F 76% 30.16 in 10.0 mi NW 3.5 mph - N/A   Scattered Clouds
3:56 AM 30.9 °F 27.5 °F 25.0 °F 79% 30.17 in 10.0 mi West 3.5 mph - N/A   Overcast
4:56 AM 30.0 °F 25.2 °F 25.0 °F 82% 30.18 in 10.0 mi West 4.6 mph - N/A   Mostly Cloudy
5:56 AM 32.0 °F 25.6 °F 26.1 °F 79% 30.19 in 10.0 mi WNW 6.9 mph - N/A   Overcast
6:56 AM 33.1 °F 26.1 °F 27.0 °F 78% 30.20 in 10.0 mi WNW 8.1 mph - N/A   Overcast
7:56 AM 34.0 °F 25.0 °F 27.0 °F 75% 30.22 in 10.0 mi WNW 12.7 mph - N/A   Scattered Clouds
8:56 AM 37.0 °F 28.9 °F 26.1 °F 65% 30.22 in 10.0 mi NW 12.7 mph - N/A   Mostly Cloudy
9:56 AM 37.9 °F 29.6 °F 24.1 °F 57% 30.22 in 10.0 mi NNW 13.8 mph - N/A   Overcast
10:56 AM 39.0 °F 31.4 °F 25.0 °F 57% 30.23 in 10.0 mi NW 12.7 mph - N/A   Overcast
11:56 AM 39.0 °F 31.4 °F 24.1 °F 55% 30.22 in 10.0 mi NW 12.7 mph - N/A   Overcast
12:56 PM 37.9 °F 28.5 °F 24.1 °F 57% 30.20 in 10.0 mi NNW 17.3 mph 25.3 mph N/A   Overcast
1:56 PM 37.9 °F 30.0 °F 24.1 °F 57% 30.19 in 10.0 mi NW 12.7 mph - N/A   Overcast
2:56 PM 37.9 °F 30.9 °F 24.1 °F 57% 30.19 in 10.0 mi NW 10.4 mph - N/A   Overcast
3:56 PM 37.9 °F 32.1 °F 25.0 °F 60% 30.19 in 10.0 mi NW 8.1 mph - N/A   Overcast
4:56 PM 37.9 °F 30.0 °F 21.9 °F 53% 30.21 in 10.0 mi NW 12.7 mph - N/A   Overcast
5:56 PM 37.0 °F 28.5 °F 21.0 °F 52% 30.23 in 10.0 mi NNW 13.8 mph - N/A   Overcast
6:56 PM 36.0 °F 30.3 °F 23.0 °F 59% 30.25 in 10.0 mi NW 6.9 mph - N/A   Overcast
7:56 PM 35.1 °F 26.9 °F 24.1 °F 64% 30.26 in 10.0 mi NW 11.5 mph - N/A   Overcast
8:56 PM 35.1 °F 28.6 °F 24.1 °F 64% 30.27 in 10.0 mi NW 8.1 mph - N/A   Overcast
9:56 PM 34.0 °F 27.2 °F 24.1 °F 67% 30.27 in 10.0 mi NW 8.1 mph - N/A   Overcast
10:56 PM 34.0 °F 26.0 °F 21.9 °F 61% 30.26 in 10.0 mi NW 10.4 mph - N/A   Overcast
11:56 PM 33.1 °F 27.7 °F 21.0 °F 61% 30.25 in 10.0 mi NW 5.8 mph - N/A   Overcast